Home > Weather > Barrow > Past weeks

Flag for U.S.A. Weather for the Past 2 Weeks in Barrow, Alaska, U.S.A.

Now
0 °F

Light snow. Low clouds.


Feels Like: -26 °F
Forecast: -6 / -2 °F
Wind: 31 mph from East

Location: Post Rogers Memorial Airport

Current Time: Feb 14, 2016 at 5:50:37 AM

Latest Report: Feb 14, 2016 at 4:53 AM


Visibility: 0 mi

Pressure: 29.70 "Hg

Humidity: 91%

Dew point: -2 °F

Location of BarrowLocation

Historic Weather in Barrow — Graph

°F

Barrow Temperature Yesterday

Maximum temperature yesterday: 0 °F (at 12:03 AM)
Minimum temperature yesterday: -6 °F (at 3:53 PM)
Average temperature yesterday: -3 °F

High & Low Weather Summary for the Past Weeks

 TemperatureHumidityPressure
High14 °F (Jan 31, 1:53 PM)92% (Feb 12, 8:53 PM)30.47 "Hg (Feb 12, 8:53 PM)
Low-19 °F (Feb 6, 10:53 AM)77% (Feb 6, 6:53 AM)29.61 "Hg (Jan 30, 4:53 AM)
Average-6 °F84%30.08 "Hg
* Reported Jan 30 4:53 AM — Feb 14 4:53 AM, Barrow, Weather by CustomWeather, © 2016

Note: Actual official high and low records may vary slightly from our data, if they occured in-between our weather recording intervals... More about our weather records

Advertising

Barrow Weather History for the Previous 24 Hours

 ConditionsComfort  
Time TempWeatherWind HumidityBarometerVisibility
4:53 AM
Sun, Feb 14
0 °FLight snow. Low clouds.31 mph91%29.70 "Hg1 mi
3:53 AM0 °FLight snow. Low clouds.31 mph87%29.69 "Hg0 mi
2:53 AM-1 °FLight snow. Low clouds.35 mph86%29.70 "Hg0 mi
1:53 AM-1 °FLight snow. Mostly cloudy.36 mph82%29.70 "Hg1 mi
12:53 AM-3 °FLight snow. Mostly cloudy.37 mph86%29.70 "Hg1 mi
11:53 PM
Sat, Feb 13
-3 °FHeavy snow. Ice fog.39 mph82%29.70 "Hg0 mi
11:00 PM-4 °FHeavy snow. Ice fog.36 mph86%29.69 "Hg0 mi
9:53 PM-4 °FHeavy snow. Ice fog.36 mph86%29.70 "Hg0 mi
8:53 PM-4 °FHeavy snow. Ice fog.36 mph86%29.71 "Hg0 mi
7:53 PM-4 °FHeavy snow. Ice fog.38 mph86%29.72 "Hg0 mi
6:53 PM-5 °FLight snow. Low clouds.39 mph87%29.72 "Hg1 mi
5:53 PM-5 °FLight snow. Low clouds.29 mph87%29.73 "Hg1 mi
4:53 PM-5 °FLight snow. Low clouds.31 mph83%29.74 "Hg0 mi
3:53 PM-6 °FMostly cloudy.33 mph87%29.75 "Hg0 mi
2:53 PM-5 °FBroken clouds.36 mph87%29.75 "Hg1 mi
1:53 PM-5 °FBroken clouds.32 mph87%29.76 "Hg1 mi
12:53 PM-5 °FBroken clouds.30 mph87%29.77 "Hg1 mi
11:53 AM-5 °FBroken clouds.29 mph87%29.78 "Hg1 mi
10:53 AM-4 °FBroken clouds.35 mph91%29.78 "Hg1 mi
9:53 AM-4 °FLight snow. Mostly cloudy.38 mph91%29.79 "Hg1 mi
8:53 AM-3 °FLight snow. Ice fog.37 mph86%29.79 "Hg1 mi
7:53 AM-2 °FLight snow. Ice fog.36 mph86%29.79 "Hg1 mi
6:53 AM-2 °FLight snow. Mostly cloudy.33 mph86%29.80 "Hg1 mi
5:53 AM-2 °FLight snow. Low clouds.32 mph86%29.81 "Hg1 mi
5:00 AM-3 °FLight snow. Overcast.36 mph90%29.81 "Hg1 mi
Weather by CustomWeather, © 2016

See weather overviewHow to use our weather pages